EW1734 Weather Reports


Display with metric or nautical units.
time (UTC)temp
F
wind
direction
speed
MPH
gust
MPH
rain 1hr
in
rain 24hr
in
rain mn
in
humidity
%
barometer
mb
20260510184524 79 298 1.0 4.0 0.00 0.00 0.00 51 1013.5
20260510184020 79 110 0.0 2.0 0.00 0.00 0.00 50 1013.6
20260510183515 78 307 2.0 3.0 0.00 0.00 0.00 52 1013.7
20260510183011 77 134 0.0 6.0 0.00 0.00 0.00 53 1013.6
20260510182508 80 121 4.0 4.0 0.00 0.00 0.00 51 1013.7
20260510182003 78 145 1.0 2.0 0.00 0.00 0.00 53 1013.5
20260510181501 76 91 2.0 2.0 0.00 0.00 0.00 55 1013.6
20260510180956 76 180 2.0 4.0 0.00 0.00 0.00 54 1013.7
20260510180454 75 304 2.0 4.0 0.00 0.00 0.00 55 1013.7
20260510175951 75 59 3.0 3.0 0.00 0.00 0.00 55 1013.7
20260510175447 75 139 0.0 5.0 0.00 0.00 0.00 55 1013.8
20260510174942 74 125 1.0 3.0 0.00 0.00 0.00 58 1013.7
20260510174441 74 185 3.0 7.0 0.00 0.00 0.00 57 1013.6
20260510173938 76 223 2.0 4.0 0.00 0.00 0.00 56 1013.5
20260510173433 74 193 1.0 3.0 0.00 0.00 0.00 58 1013.7
20260510172930 73 134 2.0 4.0 0.00 0.00 0.00 59 1013.7
20260510172425 73 171 2.0 4.0 0.00 0.00 0.00 60 1013.8
20260510171922 75 143 4.0 4.0 0.00 0.00 0.00 58 1013.6
20260510171419 74 60 3.0 4.0 0.00 0.00 0.00 60 1013.8
20260510170916 73 208 3.0 4.0 0.00 0.00 0.00 60 1013.6
20260510170413 71 119 1.0 5.0 0.00 0.00 0.00 64 1013.6
20260510165907 71 60 2.0 2.0 0.00 0.00 0.00 64 1013.6
20260510165404 71 140 2.0 4.0 0.00 0.00 0.00 65 1013.7
20260510164901 70 156 0.0 4.0 0.00 0.00 0.00 66 1013.7
20260510164359 70 60 2.0 6.0 0.00 0.00 0.00 66 1013.7
20260510163858 69 224 0.0 5.0 0.00 0.00 0.00 67 1013.6
20260510163355 71 187 2.0 2.0 0.00 0.00 0.00 64 1013.5
20260510162855 71 57 1.0 3.0 0.00 0.00 0.00 65 1013.5
20260510162353 70 111 2.0 5.0 0.00 0.00 0.00 65 1013.5
20260510161848 69 64 2.0 2.0 0.00 0.00 0.00 67 1013.3
20260510161339 66 192 3.0 5.0 0.00 0.00 0.00 71 1013.4
20260510160836 66 134 3.0 3.0 0.00 0.00 0.00 73 1013.5
20260510160333 66 201 2.0 2.0 0.00 0.00 0.00 73 1013.4
20260510155832 67 148 0.0 4.0 0.00 0.00 0.00 70 1013.4
20260510155330 66 89 1.0 2.0 0.00 0.00 0.00 72 1013.4
20260510154825 66 229 1.0 3.0 0.00 0.00 0.00 72 1013.4
20260510154316 67 124 0.0 3.0 0.00 0.00 0.00 70 1013.5
20260510153815 66 121 1.0 3.0 0.00 0.00 0.00 72 1013.4
20260510153312 65 69 0.0 2.0 0.00 0.00 0.00 74 1013.5
20260510152808 65 89 0.0 3.0 0.00 0.00 0.00 74 1013.6
20260510152307 64 114 2.0 2.0 0.00 0.00 0.00 78 1013.5
20260510151802 62 102 2.0 4.0 0.00 0.00 0.00 79 1013.6
20260510151300 63 104 0.0 3.0 0.00 0.00 0.00 80 1013.6
20260510150755 61 48 2.0 3.0 0.00 0.00 0.00 83 1013.5
20260510150251 59 125 0.0 2.0 0.00 0.00 0.00 88 1013.5
20260510145748 59 129 0.0 2.0 0.00 0.00 0.00 89 1013.6
20260510145245 58 261 0.0 2.0 0.00 0.00 0.00 91 1013.6
20260510144741 58 78 1.0 3.0 0.00 0.00 0.00 92 1013.5
20260510144238 57 57 2.0 3.0 0.00 0.00 0.00 93 1013.6
20260510143731 57 121 0.0 2.0 0.00 0.00 0.00 93 1013.4
20260510143228 57 64 1.0 2.0 0.00 0.00 0.00 93 1013.5
20260510142719 57 85 1.0 3.0 0.00 0.00 0.00 93 1013.2
20260510142216 57 31 0.0 2.0 0.00 0.00 0.00 93 1013.3
20260510141714 56 40 0.0 2.0 0.00 0.00 0.00 93 1013.2
20260510141212 56 50 0.0 2.0 0.00 0.00 0.00 93 1013.3
20260510140708 56 72 0.0 2.0 0.00 0.00 0.00 94 1013.1
20260510140208 56 45 0.0 2.0 0.00 0.00 0.00 94 1013.3
20260510135702 55 6 2.0 2.0 0.00 0.00 0.00 94 1013.2
20260510135158 55 75 2.0 4.0 0.00 0.00 0.00 94 1013.1
20260510134656 55 46 2.0 4.0 0.00 0.00 0.00 93 1013.1
20260510134153 55 24 0.0 3.0 0.00 0.00 0.00 93 1013.2
20260510133649 55 356 1.0 2.0 0.00 0.00 0.00 92 1013.1
20260510133144 55 339 0.0 4.0 0.00 0.00 0.00 92 1013.0
20260510132641 55 0 0.0 2.0 0.00 0.00 0.00 92 1013.0
20260510132138 55 118 0.0 2.0 0.00 0.00 0.00 91 1013.1
20260510131636 55 89 0.0 2.0 0.00 0.00 0.00 91 1012.9
20260510131133 55 45 1.0 5.0 0.00 0.00 0.00 90 1013.2
20260510130629 55 59 1.0 4.0 0.00 0.00 0.00 89 1013.0
20260510130127 55 21 1.0 3.0 0.00 0.00 0.00 89 1013.0
20260510125623 54 12 2.0 4.0 0.00 0.00 0.00 89 1012.9
20260510125119 54 34 1.0 4.0 0.00 0.00 0.00 90 1013.1
20260510124616 54 51 2.0 3.0 0.00 0.00 0.00 91 1013.0
20260510124113 54 17 1.0 3.0 0.00 0.00 0.00 91 1013.0
20260510123608 54 8 3.0 4.0 0.00 0.00 0.00 92 1013.0
20260510123105 54 14 2.0 3.0 0.00 0.00 0.00 92 1013.1
20260510122601 55 44 1.0 3.0 0.00 0.00 0.00 91 1012.7
20260510122057 55 40 0.0 3.0 0.00 0.00 0.00 90 1013.1
20260510121554 55 13 3.0 4.0 0.00 0.00 0.00 89 1013.1
20260510121051 55 39 1.0 3.0 0.00 0.00 0.00 87 1012.9
20260510120549 55 56 2.0 3.0 0.00 0.00 0.00 87 1012.9
20260510120044 55 63 1.0 3.0 0.00 0.00 0.00 88 1012.6
20260510115541 55 45 0.0 3.0 0.00 0.00 0.00 88 1012.9
20260510115038 55 38 2.0 3.0 0.00 0.00 0.00 88 1012.9
20260510114533 55 31 2.0 3.0 0.00 0.00 0.00 88 1012.9
20260510114030 55 54 2.0 3.0 0.00 0.00 0.00 87 1012.9
20260510113525 55 42 2.0 3.0 0.00 0.00 0.00 87 1012.7
20260510113023 55 52 2.0 2.0 0.00 0.00 0.00 88 1012.7
20260510112520 56 43 2.0 2.0 0.00 0.00 0.00 88 1012.6
20260510112016 56 27 2.0 4.0 0.00 0.00 0.00 87 1012.7
20260510111513 56 45 3.0 3.0 0.00 0.00 0.00 87 1012.6
20260510111009 56 58 1.0 1.0 0.00 0.00 0.00 87 1012.9
20260510110505 55 71 1.0 2.0 0.00 0.00 0.00 86 1012.5
20260510110002 55 56 1.0 2.0 0.00 0.00 0.00 86 1012.6
20260510105456 54 51 2.0 2.0 0.00 0.00 0.00 86 1012.5
20260510104952 54 39 2.0 2.0 0.00 0.00 0.00 86 1012.6
20260510104449 54 96 2.0 3.0 0.00 0.00 0.00 86 1012.6
20260510103945 54 54 2.0 2.0 0.00 0.00 0.00 87 1012.6
20260510103443 55 52 2.0 2.0 0.00 0.00 0.00 87 1012.7
20260510102938 55 51 0.0 2.0 0.00 0.00 0.00 86 1012.5
20260510102434 55 73 2.0 3.0 0.00 0.00 0.00 86 1012.5
20260510101931 55 29 1.0 2.0 0.00 0.00 0.00 85 1012.5
20260510101429 55 44 2.0 2.0 0.00 0.00 0.00 84 1012.9
20260510100927 55 26 2.0 3.0 0.00 0.00 0.00 84 1012.5
20260510100423 55 76 2.0 3.0 0.00 0.00 0.00 83 1012.7
20260510095919 55 81 1.0 3.0 0.00 0.00 0.00 83 1012.6
20260510095415 55 80 0.0 2.0 0.00 0.00 0.00 84 1012.6
20260510094914 55 57 2.0 2.0 0.00 0.00 0.00 83 1012.9
20260510094409 55 64 1.0 3.0 0.00 0.00 0.00 83 1012.7
20260510093906 56 64 2.0 3.0 0.00 0.00 0.00 82 1013.0
20260510093401 56 57 2.0 2.0 0.00 0.00 0.00 82 1012.7
20260510092858 56 58 2.0 2.0 0.00 0.00 0.00 81 1012.6
20260510092355 56 44 2.0 2.0 0.00 0.00 0.00 81 1012.6
20260510091850 56 40 2.0 2.0 0.00 0.00 0.00 81 1012.9
20260510091347 56 49 2.0 2.0 0.00 0.00 0.00 81 1012.6
20260510090844 56 81 1.0 3.0 0.00 0.00 0.00 81 1012.7
20260510090340 57 31 0.0 3.0 0.00 0.00 0.00 81 1012.5
20260510085835 57 80 1.0 3.0 0.00 0.00 0.00 80 1012.6
20260510085330 57 32 0.0 2.0 0.00 0.00 0.00 80 1012.6
20260510084826 57 56 2.0 3.0 0.00 0.00 0.00 79 1012.6
20260510084324 57 89 0.0 2.0 0.00 0.00 0.00 79 1012.6
20260510083820 57 35 2.0 2.0 0.00 0.00 0.00 79 1012.6
20260510083312 57 14 0.0 2.0 0.00 0.00 0.00 79 1012.5
20260510082812 58 61 2.0 2.0 0.00 0.00 0.00 78 1012.6
20260510082306 58 60 0.0 2.0 0.00 0.00 0.00 78 1012.7
20260510081803 58 16 2.0 3.0 0.00 0.00 0.00 78 1012.6
20260510081259 58 60 2.0 2.0 0.00 0.00 0.00 78 1013.0
20260510080755 58 57 2.0 2.0 0.00 0.00 0.00 78 1013.0
20260510080249 58 69 1.0 2.0 0.00 0.00 0.00 78 1012.9
20260510075747 58 60 2.0 2.0 0.00 0.00 0.00 78 1013.0
20260510075245 59 108 0.0 1.0 0.00 0.00 0.00 78 1013.2
20260510074741 59 70 1.0 2.0 0.00 0.00 0.00 77 1013.0
20260510074238 59 61 2.0 3.0 0.00 0.00 0.00 77 1013.1
20260510073734 59 45 2.0 2.0 0.00 0.00 0.00 78 1013.1
20260510073231 59 44 2.0 3.0 0.00 0.00 0.00 77 1013.1
20260510072726 59 55 1.0 2.0 0.00 0.00 0.00 76 1013.1
20260510072223 59 35 1.0 3.0 0.00 0.00 0.00 76 1013.1
20260510071720 59 44 2.0 3.0 0.00 0.00 0.00 76 1013.0
20260510071216 60 38 2.0 2.0 0.00 0.00 0.00 75 1013.1
20260510070714 60 4 0.0 2.0 0.00 0.00 0.00 75 1013.2
20260510070212 60 89 0.0 2.0 0.00 0.00 0.00 75 1013.1
20260510065706 60 46 2.0 2.0 0.00 0.00 0.00 75 1013.3
20260510065203 60 17 2.0 3.0 0.00 0.00 0.00 75 1013.2
20260510064659 60 40 0.0 2.0 0.00 0.00 0.00 75 1013.2
20260510064157 61 25 1.0 3.0 0.00 0.00 0.00 75 1013.1
20260510063654 61 41 1.0 3.0 0.00 0.00 0.00 74 1013.1
20260510063150 61 338 2.0 3.0 0.00 0.00 0.00 74 1013.1
20260510062646 61 53 0.0 2.0 0.00 0.00 0.00 75 1013.2
20260510062142 61 20 2.0 4.0 0.00 0.00 0.00 74 1013.1
20260510061637 61 23 2.0 4.0 0.00 0.00 0.00 74 1013.2
20260510061135 61 13 4.0 4.0 0.00 0.00 0.00 74 1013.2
20260510060631 62 14 2.0 3.0 0.00 0.00 0.00 74 1013.1
20260510060128 62 10 3.0 3.0 0.00 0.00 0.00 74 1013.1
20260510055624 62 53 0.0 2.0 0.00 0.00 0.00 74 1013.2
20260510055123 62 50 0.0 2.0 0.00 0.00 0.00 74 1013.3
20260510054618 62 326 0.0 2.0 0.00 0.00 0.00 74 1013.2
20260510054113 62 39 2.0 2.0 0.00 0.00 0.00 73 1013.2
20260510053613 63 17 2.0 2.0 0.00 0.00 0.00 73 1013.2
20260510053110 63 25 2.0 3.0 0.00 0.00 0.00 72 1013.2
20260510052605 63 28 0.0 2.0 0.00 0.00 0.00 72 1013.0
20260510052102 63 32 2.0 2.0 0.00 0.00 0.00 72 1013.2
20260510051557 64 39 2.0 2.0 0.00 0.00 0.00 71 1013.1
20260510051055 64 37 1.0 2.0 0.00 0.00 0.00 71 1013.2
20260510050552 64 56 0.0 2.0 0.00 0.00 0.00 71 1013.2
20260510050049 64 89 0.0 1.0 0.00 0.00 0.00 71 1013.2
20260510045546 64 56 1.0 1.0 0.00 0.00 0.00 70 1013.2
20260510045042 65 60 0.0 1.0 0.00 0.00 0.00 71 1013.1
20260510044538 65 49 1.0 2.0 0.00 0.00 0.00 70 1013.0
20260510044036 65 89 1.0 2.0 0.00 0.00 0.00 69 1013.2
20260510043532 66 89 0.0 0.0 0.00 0.00 0.00 69 1013.1
20260510043027 66 45 0.0 2.0 0.00 0.00 0.00 68 1012.9
20260510042522 67 36 3.0 3.0 0.00 0.00 0.00 67 1012.9
20260510042021 67 25 0.0 2.0 0.00 0.00 0.00 67 1012.6
20260510041519 67 43 1.0 3.0 0.00 0.00 0.00 67 1012.9
20260510041016 68 88 0.0 2.0 0.00 0.00 0.00 67 1012.7
20260510040513 68 66 3.0 3.0 0.00 0.00 0.00 67 1012.5
20260510040008 68 113 0.0 2.0 0.00 0.00 0.00 66 1012.4
20260510035506 69 141 0.0 2.0 0.00 0.00 0.00 66 1012.4
20260510035004 69 143 2.0 2.0 0.00 0.00 0.00 64 1012.3
20260510034505 69 130 0.0 4.0 0.00 0.00 0.00 64 1012.3
20260510034000 70 84 1.0 2.0 0.00 0.00 0.00 63 1012.3
20260510033456 70 148 1.0 5.0 0.00 0.00 0.00 62 1012.2
20260510032954 70 67 2.0 4.0 0.00 0.00 0.00 63 1012.2
20260510032451 70 213 0.0 2.0 0.00 0.00 0.00 65 1012.2
20260510031950 70 68 1.0 2.0 0.00 0.00 0.00 64 1011.8
20260510031446 70 89 0.0 2.0 0.00 0.00 0.00 63 1011.9
20260510030942 71 131 0.0 1.0 0.00 0.00 0.00 63 1011.8
20260510030437 71 312 1.0 2.0 0.00 0.00 0.00 62 1011.7
20260510025935 71 309 0.0 1.0 0.00 0.00 0.00 62 1011.8
20260510025432 71 186 0.0 0.0 0.00 0.00 0.00 62 1011.6
20260510024930 72 160 1.0 2.0 0.00 0.00 0.00 61 1011.4
20260510024426 72 43 0.0 1.0 0.00 0.00 0.00 61 1011.4
20260510023922 73 319 0.0 2.0 0.00 0.00 0.00 60 1011.5
20260510023419 73 269 0.0 1.0 0.00 0.00 0.00 60 1011.4
20260510022916 73 36 0.0 1.0 0.00 0.00 0.00 59 1011.3
20260510022415 74 269 0.0 1.0 0.00 0.00 0.00 58 1011.3
20260510021914 74 89 0.0 1.0 0.00 0.00 0.00 58 1011.4
20260510021412 75 254 1.0 2.0 0.00 0.00 0.00 57 1011.1
20260510020909 75 359 0.0 2.0 0.00 0.00 0.00 57 1011.2
20260510020404 76 283 0.0 3.0 0.00 0.00 0.00 56 1011.0
20260510015859 76 285 1.0 2.0 0.00 0.00 0.00 55 1011.0
20260510015355 77 17 0.0 2.0 0.00 0.00 0.00 55 1011.1
20260510014851 77 265 1.0 2.0 0.00 0.00 0.00 55 1011.0
20260510014349 77 330 2.0 2.0 0.00 0.00 0.00 54 1011.0
20260510013844 77 37 2.0 3.0 0.00 0.00 0.00 53 1011.0
20260510013340 78 246 1.0 3.0 0.00 0.00 0.00 53 1010.9
20260510012835 78 355 0.0 4.0 0.00 0.00 0.00 53 1011.0
20260510012335 78 339 1.0 4.0 0.00 0.00 0.00 53 1010.9
20260510011830 79 343 0.0 3.0 0.00 0.00 0.00 52 1010.8
20260510011326 80 323 1.0 3.0 0.00 0.00 0.00 50 1011.0
20260510010822 80 185 1.0 2.0 0.00 0.00 0.00 50 1011.0
20260510010320 80 297 3.0 4.0 0.00 0.00 0.00 50 1010.9
20260510005816 80 322 2.0 3.0 0.00 0.00 0.00 50 1011.1
20260510005313 81 307 2.0 3.0 0.00 0.00 0.00 50 1010.8
20260510004810 81 357 3.0 6.0 0.00 0.00 0.00 49 1010.8
20260510004308 82 316 2.0 3.0 0.00 0.00 0.00 48 1010.9
20260510003805 82 295 2.0 3.0 0.00 0.00 0.00 48 1010.9
20260510003302 82 339 2.0 4.0 0.00 0.00 0.00 49 1010.8
20260510002801 84 347 2.0 3.0 0.00 0.00 0.00 47 1010.8
20260510002258 84 316 2.0 4.0 0.00 0.00 0.00 46 1010.8
20260510001755 85 343 0.0 3.0 0.00 0.00 0.00 45 1010.8
20260510001253 85 338 2.0 2.0 0.00 0.00 0.00 45 1010.8
20260510000748 85 268 1.0 4.0 0.00 0.00 0.00 45 1011.0
20260510000248 87 7 2.0 3.0 0.00 0.00 0.00 44 1010.9
20260509235743 88 325 0.0 3.0 0.00 0.00 0.00 42 1010.9
20260509235240 87 244 2.0 4.0 0.00 0.00 0.00 43 1010.9
20260509234735 87 303 2.0 4.0 0.00 0.00 0.00 43 1010.9
20260509234232 87 266 1.0 3.0 0.00 0.00 0.00 43 1010.9
20260509233731 87 274 2.0 4.0 0.00 0.00 0.00 42 1010.9
20260509233228 87 278 2.0 3.0 0.00 0.00 0.00 42 1010.9
20260509232724 86 245 3.0 6.0 0.00 0.00 0.00 43 1011.0
20260509232221 87 13 2.0 4.0 0.00 0.00 0.00 43 1010.9
20260509231717 88 290 3.0 3.0 0.00 0.00 0.00 42 1010.9
20260509231215 88 319 3.0 4.0 0.00 0.00 0.00 41 1011.0
20260509230712 88 291 2.0 6.0 0.00 0.00 0.00 42 1011.1
20260509230209 87 241 4.0 4.0 0.00 0.00 0.00 41 1011.0
20260509225704 88 348 1.0 2.0 0.00 0.00 0.00 42 1010.9
20260509225200 87 298 2.0 5.0 0.00 0.00 0.00 42 1011.2
20260509224656 88 291 1.0 3.0 0.00 0.00 0.00 41 1011.1
20260509224153 89 293 3.0 4.0 0.00 0.00 0.00 41 1011.0
20260509223650 87 316 2.0 4.0 0.00 0.00 0.00 42 1011.3
20260509223147 87 244 3.0 5.0 0.00 0.00 0.00 42 1011.1
20260509222644 87 231 0.0 4.0 0.00 0.00 0.00 42 1011.3
20260509222139 88 228 2.0 5.0 0.00 0.00 0.00 42 1011.4
20260509221636 88 237 1.0 2.0 0.00 0.00 0.00 42 1011.5
20260509221131 86 10 2.0 3.0 0.00 0.00 0.00 42 1011.6
20260509220628 84 158 1.0 5.0 0.00 0.00 0.00 45 1011.6
20260509220124 85 358 3.0 4.0 0.00 0.00 0.00 44 1011.4
20260509215620 85 237 0.0 7.0 0.00 0.00 0.00 43 1011.6
20260509215117 83 1 2.0 5.0 0.00 0.00 0.00 45 1011.7
20260509214614 84 158 2.0 6.0 0.00 0.00 0.00 44 1011.7
20260509214111 84 112 2.0 9.0 0.00 0.00 0.00 44 1011.7
20260509213607 84 247 3.0 7.0 0.00 0.00 0.00 44 1011.8
20260509213103 84 117 0.0 8.0 0.00 0.00 0.00 43 1012.0
20260509212601 84 1 4.0 4.0 0.00 0.00 0.00 43 1012.0
20260509212058 83 144 2.0 11.0 0.00 0.00 0.00 45 1012.0
20260509211553 83 17 2.0 3.0 0.00 0.00 0.00 42 1012.0
20260509211050 83 187 4.0 8.0 0.00 0.00 0.00 42 1012.1
20260509210548 82 183 0.0 6.0 0.00 0.00 0.00 43 1012.1
20260509210044 84 142 5.0 5.0 0.00 0.00 0.00 42 1011.9
20260509205543 84 229 3.0 5.0 0.00 0.00 0.00 41 1012.1
20260509205039 84 266 4.0 4.0 0.00 0.00 0.00 42 1012.2
20260509204535 82 155 3.0 10.0 0.00 0.00 0.00 44 1012.4
20260509204032 82 204 4.0 6.0 0.00 0.00 0.00 44 1012.4
20260509203528 82 144 4.0 10.0 0.00 0.00 0.00 45 1012.5
20260509203027 82 251 2.0 6.0 0.00 0.00 0.00 44 1012.4
20260509202526 82 112 1.0 6.0 0.00 0.00 0.00 45 1012.5
20260509202022 81 344 3.0 6.0 0.00 0.00 0.00 46 1012.5
20260509201517 81 206 2.0 5.0 0.00 0.00 0.00 46 1012.5
20260509201010 80 247 1.0 6.0 0.00 0.00 0.00 47 1012.6
20260509200509 80 158 3.0 5.0 0.00 0.00 0.00 47 1012.7
20260509200006 80 50 2.0 5.0 0.00 0.00 0.00 48 1012.3
20260509195502 81 172 1.0 5.0 0.00 0.00 0.00 48 1012.7
20260509195001 80 170 1.0 3.0 0.00 0.00 0.00 48 1012.7
20260509194457 80 232 0.0 3.0 0.00 0.00 0.00 48 1012.7
20260509193955 79 160 1.0 4.0 0.00 0.00 0.00 49 1012.9
20260509193454 79 136 4.0 7.0 0.00 0.00 0.00 49 1013.0
20260509192950 78 209 4.0 9.0 0.00 0.00 0.00 50 1013.1
20260509192447 78 36 0.0 5.0 0.00 0.00 0.00 53 1013.1
20260509191942 77 140 3.0 5.0 0.00 0.00 0.00 51 1013.1
20260509191438 77 210 3.0 5.0 0.00 0.00 0.00 51 1013.1
20260509190934 78 113 2.0 6.0 0.00 0.00 0.00 50 1013.3
20260509190431 78 193 3.0 4.0 0.00 0.00 0.00 51 1013.5
20260509185929 77 122 2.0 10.0 0.00 0.00 0.00 53 1013.3
20260509185426 77 105 1.0 4.0 0.00 0.00 0.00 53 1013.4
20260509184923 78 224 3.0 3.0 0.00 0.00 0.00 52 1013.2